| time (UTC) | temp F | wind direction | speed MPH | gust MPH | rain 1hr in | rain 24hr in | rain mn in | humidity % | barometer mb |
| 20260901105035 | 78 | 0.0 | 0.0 | 0.00 | 0.00 | 0.00 | 73 | 1016.8 | |
| 20260901104535 | 78 | 0.0 | 0.0 | 0.00 | 0.00 | 0.00 | 72 | 1016.7 | |
| 20260901104034 | 79 | 0.0 | 0.0 | 0.00 | 0.00 | 0.00 | 72 | 1016.8 | |
| 20260901103520 | 78 | 179 | 0.0 | 1.0 | 0.00 | 0.00 | 0.00 | 73 | 1016.7 |
| 20260901103103 | 78 | 0.0 | 0.0 | 0.00 | 0.00 | 0.00 | 73 | 1016.8 | |
| 20260901102603 | 78 | 179 | 0.0 | 1.0 | 0.00 | 0.00 | 0.00 | 72 | 1016.8 |
| 20260901102035 | 79 | 0.0 | 0.0 | 0.00 | 0.00 | 0.00 | 71 | 1016.8 | |
| 20260901101555 | 79 | 0.0 | 0.0 | 0.00 | 0.00 | 0.00 | 71 | 1016.7 | |
| 20260901101139 | 80 | 179 | 0.0 | 1.0 | 0.00 | 0.00 | 0.00 | 70 | 1016.8 |
| 20260901100619 | 80 | 179 | 1.0 | 1.0 | 0.00 | 0.00 | 0.00 | 68 | 1016.9 |
| 20260901100040 | 80 | 177 | 1.0 | 1.0 | 0.00 | 0.00 | 0.00 | 67 | 1016.8 |
| 20260901095520 | 80 | 177 | 1.0 | 1.0 | 0.00 | 0.00 | 0.00 | 68 | 1016.7 |
| 20260901095103 | 80 | 177 | 1.0 | 1.0 | 0.00 | 0.00 | 0.00 | 67 | 1016.8 |
| 20260901094544 | 80 | 180 | 1.0 | 2.0 | 0.00 | 0.00 | 0.00 | 66 | 1016.8 |
| 20260901094023 | 80 | 180 | 1.0 | 2.0 | 0.00 | 0.00 | 0.00 | 67 | 1016.8 |
| 20260901093607 | 80 | 177 | 1.0 | 2.0 | 0.00 | 0.00 | 0.00 | 67 | 1016.9 |
| 20260901093108 | 81 | 173 | 1.0 | 1.0 | 0.00 | 0.00 | 0.00 | 66 | 1016.9 |
| 20260901092527 | 81 | 172 | 1.0 | 2.0 | 0.00 | 0.00 | 0.00 | 64 | 1016.9 |
| 20260901092151 | 81 | 174 | 1.0 | 2.0 | 0.00 | 0.00 | 0.00 | 64 | 1016.9 |
| 20260901091552 | 81 | 177 | 1.0 | 2.0 | 0.00 | 0.00 | 0.00 | 63 | 1016.9 |
| 20260901091031 | 81 | 177 | 1.0 | 2.0 | 0.00 | 0.00 | 0.00 | 63 | 1016.9 |
| 20260901090616 | 81 | 179 | 1.0 | 1.0 | 0.00 | 0.00 | 0.00 | 62 | 1016.8 |
| 20260901090055 | 80 | 180 | 1.0 | 2.0 | 0.00 | 0.00 | 0.00 | 62 | 1016.7 |
| 20260901085615 | 80 | 177 | 1.0 | 1.0 | 0.00 | 0.00 | 0.00 | 61 | 1016.7 |
| 20260901085119 | 81 | 173 | 1.0 | 1.0 | 0.00 | 0.00 | 0.00 | 61 | 1016.7 |
| 20260901084559 | 81 | 175 | 1.0 | 1.0 | 0.00 | 0.00 | 0.00 | 61 | 1016.6 |
| 20260901084040 | 80 | 178 | 1.0 | 2.0 | 0.00 | 0.00 | 0.00 | 61 | 1016.6 |
| 20260901083540 | 80 | 172 | 1.0 | 1.0 | 0.00 | 0.00 | 0.00 | 63 | 1016.6 |
| 20260901083103 | 79 | 156 | 1.0 | 1.0 | 0.00 | 0.00 | 0.00 | 62 | 1016.5 |
| 20260901082543 | 79 | 156 | 1.0 | 1.0 | 0.00 | 0.00 | 0.00 | 62 | 1016.5 |
| 20260901082044 | 79 | 156 | 0.0 | 1.0 | 0.00 | 0.00 | 0.00 | 62 | 1016.6 |
| 20260901081607 | 79 | 156 | 0.0 | 1.0 | 0.00 | 0.00 | 0.00 | 63 | 1016.4 |
| 20260901081047 | 79 | 0.0 | 0.0 | 0.00 | 0.00 | 0.00 | 63 | 1016.4 | |
| 20260901080528 | 79 | 0.0 | 0.0 | 0.00 | 0.00 | 0.00 | 61 | 1016.3 | |
| 20260901080111 | 79 | 156 | 0.0 | 1.0 | 0.00 | 0.00 | 0.00 | 62 | 1016.4 |
| 20260901075551 | 78 | 0.0 | 0.0 | 0.00 | 0.00 | 0.00 | 62 | 1016.3 | |
| 20260901075112 | 78 | 0.0 | 0.0 | 0.00 | 0.00 | 0.00 | 64 | 1016.3 | |
| 20260901074635 | 78 | 0.0 | 0.0 | 0.00 | 0.00 | 0.00 | 62 | 1016.4 | |
| 20260901074055 | 79 | 0.0 | 0.0 | 0.00 | 0.00 | 0.00 | 62 | 1016.3 | |
| 20260901073535 | 79 | 0.0 | 0.0 | 0.00 | 0.00 | 0.00 | 61 | 1016.4 | |
| 20260901073119 | 79 | 0.0 | 0.0 | 0.00 | 0.00 | 0.00 | 61 | 1016.4 | |
| 20260901072559 | 80 | 157 | 0.0 | 1.0 | 0.00 | 0.00 | 0.00 | 60 | 1016.3 |
| 20260901072039 | 80 | 162 | 0.0 | 1.0 | 0.00 | 0.00 | 0.00 | 59 | 1016.4 |
| 20260901071521 | 80 | 0.0 | 0.0 | 0.00 | 0.00 | 0.00 | 60 | 1016.3 | |
| 20260901071103 | 79 | 0.0 | 0.0 | 0.00 | 0.00 | 0.00 | 59 | 1016.2 | |
| 20260901070543 | 79 | 0.0 | 0.0 | 0.00 | 0.00 | 0.00 | 60 | 1016.2 | |
| 20260901070024 | 79 | 0.0 | 0.0 | 0.00 | 0.00 | 0.00 | 61 | 1016.2 | |
| 20260901065607 | 79 | 0.0 | 0.0 | 0.00 | 0.00 | 0.00 | 61 | 1016.2 | |
| 20260901065047 | 79 | 0.0 | 0.0 | 0.00 | 0.00 | 0.00 | 59 | 1016.2 | |
| 20260901064528 | 79 | 0.0 | 0.0 | 0.00 | 0.00 | 0.00 | 60 | 1016.2 | |
| 20260901064112 | 79 | 160 | 0.0 | 1.0 | 0.00 | 0.00 | 0.00 | 61 | 1016.1 |
| 20260901063551 | 80 | 0.0 | 0.0 | 0.00 | 0.00 | 0.00 | 60 | 1016.1 | |
| 20260901063032 | 80 | 0.0 | 0.0 | 0.00 | 0.00 | 0.00 | 59 | 1016.0 | |
| 20260901062615 | 80 | 0.0 | 0.0 | 0.00 | 0.00 | 0.00 | 59 | 1016.0 | |
| 20260901062055 | 80 | 0.0 | 0.0 | 0.00 | 0.00 | 0.00 | 60 | 1015.9 | |
| 20260901061535 | 80 | 0.0 | 0.0 | 0.00 | 0.00 | 0.00 | 59 | 1015.9 | |
| 20260901061140 | 81 | 160 | 0.0 | 1.0 | 0.00 | 0.00 | 0.00 | 56 | 1015.9 |
| 20260901060559 | 80 | 161 | 0.0 | 1.0 | 0.00 | 0.00 | 0.00 | 58 | 1016.0 |
| 20260901060100 | 80 | 0.0 | 0.0 | 0.00 | 0.00 | 0.00 | 58 | 1016.0 | |
| 20260901055520 | 80 | 162 | 0.0 | 1.0 | 0.00 | 0.00 | 0.00 | 58 | 1015.9 |
| 20260901055103 | 80 | 0.0 | 0.0 | 0.00 | 0.00 | 0.00 | 59 | 1015.9 | |
| 20260901054545 | 80 | 162 | 0.0 | 1.0 | 0.00 | 0.00 | 0.00 | 59 | 1016.0 |
| 20260901054024 | 80 | 0.0 | 0.0 | 0.00 | 0.00 | 0.00 | 58 | 1015.8 | |
| 20260901053607 | 80 | 0.0 | 0.0 | 0.00 | 0.00 | 0.00 | 59 | 1015.8 | |
| 20260901053048 | 80 | 0.0 | 0.0 | 0.00 | 0.00 | 0.00 | 58 | 1015.7 | |
| 20260901052548 | 80 | 0.0 | 0.0 | 0.00 | 0.00 | 0.00 | 57 | 1015.7 | |
| 20260901052111 | 81 | 0.0 | 0.0 | 0.00 | 0.00 | 0.00 | 56 | 1015.6 | |
| 20260901051552 | 81 | 162 | 0.0 | 1.0 | 0.00 | 0.00 | 0.00 | 57 | 1015.6 |
| 20260901051034 | 81 | 162 | 0.0 | 1.0 | 0.00 | 0.00 | 0.00 | 58 | 1015.4 |
| 20260901050534 | 81 | 162 | 0.0 | 1.0 | 0.00 | 0.00 | 0.00 | 58 | 1015.5 |
| 20260901050038 | 80 | 0.0 | 0.0 | 0.00 | 0.00 | 0.00 | 57 | 1015.5 | |
| 20260901045534 | 81 | 0.0 | 0.0 | 0.00 | 0.00 | 0.00 | 56 | 1015.5 | |
| 20260901045119 | 81 | 0.0 | 0.0 | 0.00 | 0.00 | 0.00 | 56 | 1015.5 | |
| 20260901044559 | 81 | 0.0 | 0.0 | 0.00 | 0.00 | 0.00 | 56 | 1015.5 | |
| 20260901044033 | 82 | 162 | 0.0 | 1.0 | 0.00 | 0.00 | 0.00 | 55 | 1015.5 |
| 20260901043534 | 81 | 0.0 | 0.0 | 0.00 | 0.00 | 0.00 | 55 | 1015.5 | |
| 20260901043034 | 82 | 0.0 | 0.0 | 0.00 | 0.00 | 0.00 | 54 | 1015.4 | |
| 20260901042533 | 82 | 0.0 | 0.0 | 0.00 | 0.00 | 0.00 | 54 | 1015.4 | |
| 20260901042054 | 82 | 0.0 | 0.0 | 0.00 | 0.00 | 0.00 | 54 | 1015.4 | |
| 20260901041535 | 82 | 0.0 | 0.0 | 0.00 | 0.00 | 0.00 | 53 | 1015.3 | |
| 20260901041034 | 82 | 0.0 | 0.0 | 0.00 | 0.00 | 0.00 | 53 | 1015.3 | |
| 20260901040533 | 83 | 0.0 | 0.0 | 0.00 | 0.00 | 0.00 | 54 | 1015.3 | |
| 20260901040034 | 84 | 0.0 | 0.0 | 0.00 | 0.00 | 0.00 | 53 | 1015.3 | |
| 20260901035554 | 84 | 0.0 | 0.0 | 0.00 | 0.00 | 0.00 | 53 | 1015.4 | |
| 20260901035119 | 84 | 0.0 | 0.0 | 0.00 | 0.00 | 0.00 | 52 | 1015.4 | |
| 20260901034640 | 84 | 0.0 | 0.0 | 0.00 | 0.00 | 0.00 | 52 | 1015.4 | |
| 20260901034039 | 84 | 0.0 | 0.0 | 0.00 | 0.00 | 0.00 | 53 | 1015.3 | |
| 20260901033533 | 83 | 0.0 | 0.0 | 0.00 | 0.00 | 0.00 | 54 | 1015.4 | |
| 20260901033034 | 83 | 0.0 | 0.0 | 0.00 | 0.00 | 0.00 | 54 | 1015.4 | |
| 20260901032533 | 84 | 0.0 | 0.0 | 0.00 | 0.00 | 0.00 | 53 | 1015.2 | |
| 20260901032024 | 84 | 0.0 | 0.0 | 0.00 | 0.00 | 0.00 | 53 | 1015.2 | |
| 20260901031648 | 84 | 0.0 | 0.0 | 0.00 | 0.00 | 0.00 | 52 | 1015.3 | |
| 20260901031047 | 85 | 0.0 | 0.0 | 0.00 | 0.00 | 0.00 | 51 | 1015.2 | |
| 20260901030534 | 85 | 0.0 | 0.0 | 0.00 | 0.00 | 0.00 | 51 | 1015.2 | |
| 20260901030034 | 86 | 0.0 | 0.0 | 0.00 | 0.00 | 0.00 | 51 | 1015.2 | |
| 20260901025534 | 86 | 165 | 0.0 | 1.0 | 0.00 | 0.00 | 0.00 | 51 | 1015.1 |
| 20260901025032 | 86 | 166 | 0.0 | 1.0 | 0.00 | 0.00 | 0.00 | 50 | 1015.0 |
| 20260901024615 | 85 | 0.0 | 0.0 | 0.00 | 0.00 | 0.00 | 51 | 1015.0 | |
| 20260901024056 | 86 | 0.0 | 0.0 | 0.00 | 0.00 | 0.00 | 50 | 1014.9 | |
| 20260901023534 | 86 | 166 | 0.0 | 1.0 | 0.00 | 0.00 | 0.00 | 49 | 1014.9 |
| 20260901023034 | 86 | 0.0 | 0.0 | 0.00 | 0.00 | 0.00 | 49 | 1014.9 | |
| 20260901022533 | 86 | 165 | 0.0 | 1.0 | 0.00 | 0.00 | 0.00 | 50 | 1014.8 |
| 20260901022034 | 86 | 0.0 | 0.0 | 0.00 | 0.00 | 0.00 | 51 | 1014.7 | |
| 20260901021554 | 86 | 0.0 | 0.0 | 0.00 | 0.00 | 0.00 | 50 | 1014.7 | |
| 20260901021033 | 86 | 0.0 | 0.0 | 0.00 | 0.00 | 0.00 | 49 | 1014.6 | |
| 20260901020534 | 87 | 0.0 | 0.0 | 0.00 | 0.00 | 0.00 | 48 | 1014.5 | |
| 20260901020035 | 87 | 0.0 | 0.0 | 0.00 | 0.00 | 0.00 | 48 | 1014.4 | |
| 20260901015534 | 88 | 0.0 | 0.0 | 0.00 | 0.00 | 0.00 | 47 | 1014.4 | |
| 20260901015032 | 88 | 166 | 0.0 | 1.0 | 0.00 | 0.00 | 0.00 | 46 | 1014.4 |
| 20260901014615 | 89 | 165 | 0.0 | 1.0 | 0.00 | 0.00 | 0.00 | 46 | 1014.4 |
| 20260901014055 | 89 | 170 | 0.0 | 1.0 | 0.00 | 0.00 | 0.00 | 45 | 1014.4 |
| 20260901013615 | 90 | 0.0 | 0.0 | 0.00 | 0.00 | 0.00 | 45 | 1014.3 | |
| 20260901013034 | 90 | 174 | 0.0 | 1.0 | 0.00 | 0.00 | 0.00 | 44 | 1014.3 |
| 20260901012533 | 90 | 177 | 1.0 | 1.0 | 0.00 | 0.00 | 0.00 | 44 | 1014.2 |
| 20260901012034 | 91 | 174 | 0.0 | 1.0 | 0.00 | 0.00 | 0.00 | 44 | 1014.1 |
| 20260901011541 | 91 | 174 | 0.0 | 1.0 | 0.00 | 0.00 | 0.00 | 43 | 1014.1 |
| 20260901011104 | 91 | 174 | 0.0 | 1.0 | 0.00 | 0.00 | 0.00 | 43 | 1014.0 |
| 20260901010543 | 92 | 172 | 0.0 | 1.0 | 0.00 | 0.00 | 0.00 | 42 | 1014.1 |
| 20260901010054 | 92 | 176 | 0.0 | 1.0 | 0.00 | 0.00 | 0.00 | 41 | 1014.0 |
| 20260901005533 | 93 | 175 | 1.0 | 2.0 | 0.00 | 0.00 | 0.00 | 41 | 1014.0 |
| 20260901005034 | 93 | 182 | 1.0 | 3.0 | 0.00 | 0.00 | 0.00 | 41 | 1014.1 |
| 20260901004529 | 93 | 175 | 0.0 | 1.0 | 0.00 | 0.00 | 0.00 | 40 | 1014.0 |
| 20260901004111 | 94 | 171 | 0.0 | 1.0 | 0.00 | 0.00 | 0.00 | 40 | 1014.0 |
| 20260901003652 | 94 | 173 | 0.0 | 1.0 | 0.00 | 0.00 | 0.00 | 39 | 1014.0 |
| 20260901003034 | 94 | 179 | 1.0 | 2.0 | 0.00 | 0.00 | 0.00 | 38 | 1013.9 |
| 20260901002554 | 95 | 164 | 0.0 | 1.0 | 0.00 | 0.00 | 0.00 | 39 | 1014.0 |
| 20260901002033 | 95 | 174 | 0.0 | 1.0 | 0.00 | 0.00 | 0.00 | 38 | 1014.0 |
| 20260901001534 | 96 | 149 | 0.0 | 1.0 | 0.00 | 0.00 | 0.00 | 37 | 1014.0 |
| 20260901001034 | 96 | 171 | 1.0 | 3.0 | 0.00 | 0.00 | 0.00 | 37 | 1014.0 |
| 20260901000533 | 97 | 175 | 2.0 | 3.0 | 0.00 | 0.00 | 0.00 | 36 | 1013.9 |
| 20260901000033 | 97 | 190 | 2.0 | 3.0 | 0.00 | 0.00 | 0.00 | 36 | 1013.9 |
| 20260831235534 | 97 | 158 | 1.0 | 2.0 | 0.00 | 0.00 | 0.00 | 36 | 1014.0 |
| 20260831235033 | 98 | 138 | 1.0 | 2.0 | 0.00 | 0.00 | 0.00 | 36 | 1014.0 |
| 20260831234529 | 99 | 165 | 2.0 | 3.0 | 0.00 | 0.00 | 0.00 | 35 | 1014.0 |
| 20260831234112 | 99 | 172 | 1.0 | 2.0 | 0.00 | 0.00 | 0.00 | 35 | 1014.0 |
| 20260831233552 | 100 | 191 | 2.0 | 3.0 | 0.00 | 0.00 | 0.00 | 34 | 1014.0 |
| 20260831233034 | 100 | 185 | 1.0 | 3.0 | 0.00 | 0.00 | 0.00 | 34 | 1013.9 |
| 20260831232534 | 100 | 180 | 1.0 | 2.0 | 0.00 | 0.00 | 0.00 | 34 | 1013.9 |
| 20260831232033 | 100 | 185 | 1.0 | 2.0 | 0.00 | 0.00 | 0.00 | 34 | 1014.0 |
| 20260831231534 | 100 | 189 | 1.0 | 2.0 | 0.00 | 0.00 | 0.00 | 33 | 1013.9 |
| 20260831231119 | 100 | 188 | 1.0 | 2.0 | 0.00 | 0.00 | 0.00 | 33 | 1013.9 |
| 20260831230559 | 100 | 182 | 2.0 | 3.0 | 0.00 | 0.00 | 0.00 | 33 | 1013.9 |
| 20260831230035 | 101 | 185 | 2.0 | 5.0 | 0.00 | 0.00 | 0.00 | 33 | 1014.0 |
| 20260831225533 | 101 | 181 | 2.0 | 2.0 | 0.00 | 0.00 | 0.00 | 34 | 1014.0 |
| 20260831225033 | 101 | 176 | 1.0 | 2.0 | 0.00 | 0.00 | 0.00 | 33 | 1014.1 |
| 20260831224534 | 101 | 172 | 1.0 | 2.0 | 0.00 | 0.00 | 0.00 | 35 | 1014.0 |
| 20260831224044 | 100 | 153 | 1.0 | 2.0 | 0.00 | 0.00 | 0.00 | 35 | 1014.0 |
| 20260831223108 | 101 | 167 | 1.0 | 3.0 | 0.00 | 0.00 | 0.00 | 35 | 1014.1 |
| 20260831222534 | 101 | 177 | 2.0 | 3.0 | 0.00 | 0.00 | 0.00 | 33 | 1014.2 |
| 20260831222053 | 101 | 98 | 1.0 | 5.0 | 0.00 | 0.00 | 0.00 | 34 | 1014.1 |
| 20260831221535 | 101 | 157 | 2.0 | 6.0 | 0.00 | 0.00 | 0.00 | 34 | 1014.1 |
| 20260831221033 | 102 | 197 | 2.0 | 3.0 | 0.00 | 0.00 | 0.00 | 33 | 1014.2 |
| 20260831220636 | 104 | 173 | 2.0 | 8.0 | 0.00 | 0.00 | 0.00 | 32 | 1014.4 |
| 20260831220056 | 103 | 164 | 1.0 | 2.0 | 0.00 | 0.00 | 0.00 | 32 | 1014.5 |
| 20260831215533 | 103 | 175 | 1.0 | 3.0 | 0.00 | 0.00 | 0.00 | 32 | 1014.3 |
| 20260831215033 | 102 | 188 | 2.0 | 8.0 | 0.00 | 0.00 | 0.00 | 32 | 1014.5 |
| 20260831214534 | 102 | 225 | 2.0 | 5.0 | 0.00 | 0.00 | 0.00 | 31 | 1014.6 |
| 20260831214024 | 102 | 180 | 2.0 | 6.0 | 0.00 | 0.00 | 0.00 | 32 | 1014.5 |
| 20260831213607 | 102 | 174 | 2.0 | 3.0 | 0.00 | 0.00 | 0.00 | 34 | 1014.7 |
| 20260831213048 | 102 | 157 | 2.0 | 5.0 | 0.00 | 0.00 | 0.00 | 33 | 1014.7 |
| 20260831212534 | 103 | 187 | 2.0 | 3.0 | 0.00 | 0.00 | 0.00 | 31 | 1014.8 |
| 20260831212034 | 102 | 187 | 2.0 | 5.0 | 0.00 | 0.00 | 0.00 | 31 | 1014.9 |
| 20260831211554 | 101 | 145 | 2.0 | 10.0 | 0.00 | 0.00 | 0.00 | 34 | 1014.7 |
| 20260831211032 | 102 | 204 | 2.0 | 2.0 | 0.00 | 0.00 | 0.00 | 33 | 1014.7 |
| 20260831210616 | 103 | 162 | 2.0 | 7.0 | 0.00 | 0.00 | 0.00 | 32 | 1014.8 |
| 20260831210056 | 102 | 180 | 2.0 | 3.0 | 0.00 | 0.00 | 0.00 | 33 | 1014.9 |
| 20260831205534 | 101 | 191 | 1.0 | 2.0 | 0.00 | 0.00 | 0.00 | 33 | 1015.0 |
| 20260831205033 | 102 | 178 | 2.0 | 3.0 | 0.00 | 0.00 | 0.00 | 33 | 1015.1 |
| 20260831204534 | 102 | 175 | 2.0 | 5.0 | 0.00 | 0.00 | 0.00 | 33 | 1015.3 |
| 20260831204033 | 103 | 208 | 2.0 | 3.0 | 0.00 | 0.00 | 0.00 | 32 | 1015.3 |
| 20260831203521 | 102 | 171 | 2.0 | 6.0 | 0.00 | 0.00 | 0.00 | 33 | 1015.4 |
| 20260831203104 | 102 | 178 | 2.0 | 2.0 | 0.00 | 0.00 | 0.00 | 33 | 1015.5 |
| 20260831202534 | 101 | 193 | 2.0 | 3.0 | 0.00 | 0.00 | 0.00 | 34 | 1015.4 |
| 20260831202034 | 101 | 192 | 2.0 | 5.0 | 0.00 | 0.00 | 0.00 | 34 | 1015.6 |
| 20260831201554 | 101 | 206 | 2.0 | 6.0 | 0.00 | 0.00 | 0.00 | 34 | 1015.5 |
| 20260831201033 | 103 | 189 | 2.0 | 5.0 | 0.00 | 0.00 | 0.00 | 33 | 1015.6 |
| 20260831200553 | 103 | 187 | 2.0 | 5.0 | 0.00 | 0.00 | 0.00 | 33 | 1015.7 |
| 20260831200034 | 102 | 200 | 2.0 | 3.0 | 0.00 | 0.00 | 0.00 | 33 | 1015.7 |
| 20260831195533 | 101 | 201 | 1.0 | 5.0 | 0.00 | 0.00 | 0.00 | 34 | 1015.8 |
| 20260831195053 | 100 | 207 | 2.0 | 6.0 | 0.00 | 0.00 | 0.00 | 35 | 1015.9 |
| 20260831194614 | 102 | 210 | 1.0 | 3.0 | 0.00 | 0.00 | 0.00 | 34 | 1015.8 |
| 20260831194034 | 102 | 179 | 3.0 | 6.0 | 0.00 | 0.00 | 0.00 | 34 | 1015.9 |
| 20260831193520 | 102 | 194 | 1.0 | 2.0 | 0.00 | 0.00 | 0.00 | 32 | 1016.0 |
| 20260831193104 | 100 | 243 | 2.0 | 5.0 | 0.00 | 0.00 | 0.00 | 33 | 1016.1 |
| 20260831192544 | 101 | 201 | 2.0 | 5.0 | 0.00 | 0.00 | 0.00 | 33 | 1016.2 |
| 20260831192053 | 101 | 191 | 2.0 | 5.0 | 0.00 | 0.00 | 0.00 | 34 | 1016.2 |
| 20260831191534 | 101 | 201 | 2.0 | 6.0 | 0.00 | 0.00 | 0.00 | 34 | 1016.3 |
| 20260831191033 | 100 | 186 | 3.0 | 6.0 | 0.00 | 0.00 | 0.00 | 34 | 1016.2 |
| 20260831190548 | 100 | 188 | 2.0 | 6.0 | 0.00 | 0.00 | 0.00 | 33 | 1016.3 |
| 20260831190112 | 100 | 188 | 2.0 | 5.0 | 0.00 | 0.00 | 0.00 | 34 | 1016.3 |
| 20260831185551 | 100 | 185 | 2.0 | 3.0 | 0.00 | 0.00 | 0.00 | 35 | 1016.3 |
| 20260831185033 | 100 | 196 | 2.0 | 3.0 | 0.00 | 0.00 | 0.00 | 35 | 1016.4 |
| 20260831184533 | 100 | 191 | 2.0 | 3.0 | 0.00 | 0.00 | 0.00 | 34 | 1016.5 |
| 20260831184033 | 100 | 199 | 3.0 | 5.0 | 0.00 | 0.00 | 0.00 | 35 | 1016.6 |
| 20260831183533 | 99 | 238 | 2.0 | 6.0 | 0.00 | 0.00 | 0.00 | 36 | 1016.7 |
| 20260831183120 | 99 | 178 | 2.0 | 5.0 | 0.00 | 0.00 | 0.00 | 37 | 1016.8 |
| 20260831182600 | 100 | 188 | 2.0 | 3.0 | 0.00 | 0.00 | 0.00 | 36 | 1016.8 |
| 20260831182033 | 99 | 183 | 2.0 | 3.0 | 0.00 | 0.00 | 0.00 | 36 | 1016.9 |
| 20260831181535 | 98 | 243 | 2.0 | 5.0 | 0.00 | 0.00 | 0.00 | 37 | 1017.0 |
| 20260831181034 | 98 | 186 | 2.0 | 5.0 | 0.00 | 0.00 | 0.00 | 37 | 1017.0 |
| 20260831180534 | 99 | 183 | 2.0 | 5.0 | 0.00 | 0.00 | 0.00 | 37 | 1017.2 |
| 20260831180034 | 99 | 197 | 2.0 | 3.0 | 0.00 | 0.00 | 0.00 | 37 | 1017.4 |
| 20260831175553 | 99 | 184 | 2.0 | 3.0 | 0.00 | 0.00 | 0.00 | 36 | 1017.4 |
| 20260831175120 | 99 | 200 | 1.0 | 2.0 | 0.00 | 0.00 | 0.00 | 39 | 1017.4 |
| 20260831174620 | 98 | 189 | 2.0 | 3.0 | 0.00 | 0.00 | 0.00 | 37 | 1017.5 |
| 20260831174100 | 99 | 185 | 2.0 | 3.0 | 0.00 | 0.00 | 0.00 | 38 | 1017.6 |
| 20260831173533 | 98 | 197 | 1.0 | 3.0 | 0.00 | 0.00 | 0.00 | 38 | 1017.6 |
| 20260831173140 | 98 | 199 | 2.0 | 2.0 | 0.00 | 0.00 | 0.00 | 39 | 1017.6 |
| 20260831172620 | 98 | 180 | 2.0 | 2.0 | 0.00 | 0.00 | 0.00 | 39 | 1017.5 |
| 20260831172039 | 97 | 203 | 2.0 | 3.0 | 0.00 | 0.00 | 0.00 | 40 | 1017.7 |
| 20260831171535 | 97 | 196 | 2.0 | 3.0 | 0.00 | 0.00 | 0.00 | 40 | 1017.8 |
| 20260831171034 | 97 | 195 | 2.0 | 5.0 | 0.00 | 0.00 | 0.00 | 41 | 1017.8 |
| 20260831170553 | 97 | 161 | 2.0 | 5.0 | 0.00 | 0.00 | 0.00 | 41 | 1017.8 |
| 20260831170034 | 97 | 185 | 2.0 | 3.0 | 0.00 | 0.00 | 0.00 | 40 | 1017.9 |
| 20260831165521 | 96 | 180 | 1.0 | 2.0 | 0.00 | 0.00 | 0.00 | 42 | 1017.8 |
| 20260831165104 | 96 | 200 | 2.0 | 3.0 | 0.00 | 0.00 | 0.00 | 43 | 1017.8 |
| 20260831164544 | 95 | 210 | 1.0 | 2.0 | 0.00 | 0.00 | 0.00 | 44 | 1017.9 |
| 20260831164033 | 94 | 176 | 1.0 | 2.0 | 0.00 | 0.00 | 0.00 | 45 | 1017.9 |
| 20260831163534 | 95 | 193 | 2.0 | 2.0 | 0.00 | 0.00 | 0.00 | 44 | 1018.0 |
| 20260831163033 | 94 | 191 | 1.0 | 3.0 | 0.00 | 0.00 | 0.00 | 45 | 1017.9 |
| 20260831162534 | 94 | 179 | 1.0 | 3.0 | 0.00 | 0.00 | 0.00 | 45 | 1017.9 |
| 20260831162033 | 93 | 179 | 1.0 | 3.0 | 0.00 | 0.00 | 0.00 | 46 | 1018.0 |
| 20260831161555 | 93 | 190 | 1.0 | 2.0 | 0.00 | 0.00 | 0.00 | 46 | 1018.0 |
| 20260831161033 | 93 | 190 | 1.0 | 2.0 | 0.00 | 0.00 | 0.00 | 46 | 1018.0 |
| 20260831160533 | 93 | 188 | 1.0 | 3.0 | 0.00 | 0.00 | 0.00 | 46 | 1018.1 |
| 20260831160033 | 92 | 194 | 1.0 | 2.0 | 0.00 | 0.00 | 0.00 | 46 | 1018.1 |
| 20260831155521 | 92 | 187 | 2.0 | 3.0 | 0.00 | 0.00 | 0.00 | 47 | 1018.0 |
| 20260831155124 | 92 | 207 | 2.0 | 5.0 | 0.00 | 0.00 | 0.00 | 48 | 1018.0 |
| 20260831154534 | 92 | 174 | 2.0 | 3.0 | 0.00 | 0.00 | 0.00 | 50 | 1018.1 |
| 20260831154033 | 91 | 177 | 1.0 | 2.0 | 0.00 | 0.00 | 0.00 | 50 | 1018.1 |
| 20260831153533 | 91 | 175 | 1.0 | 2.0 | 0.00 | 0.00 | 0.00 | 51 | 1018.0 |
| 20260831153032 | 91 | 197 | 2.0 | 3.0 | 0.00 | 0.00 | 0.00 | 51 | 1018.0 |
| 20260831152615 | 90 | 169 | 1.0 | 2.0 | 0.00 | 0.00 | 0.00 | 52 | 1018.1 |
| 20260831152055 | 90 | 183 | 1.0 | 2.0 | 0.00 | 0.00 | 0.00 | 54 | 1017.8 |
| 20260831151535 | 89 | 182 | 1.0 | 2.0 | 0.00 | 0.00 | 0.00 | 55 | 1017.8 |
| 20260831151034 | 89 | 184 | 2.0 | 5.0 | 0.00 | 0.00 | 0.00 | 56 | 1018.0 |
| 20260831150533 | 88 | 174 | 1.0 | 2.0 | 0.00 | 0.00 | 0.00 | 60 | 1018.0 |
| 20260831150033 | 88 | 177 | 1.0 | 2.0 | 0.00 | 0.00 | 0.00 | 60 | 1018.0 |
| 20260831145520 | 87 | 166 | 0.0 | 1.0 | 0.00 | 0.00 | 0.00 | 62 | 1017.8 |
| 20260831145104 | 87 | 173 | 0.0 | 1.0 | 0.00 | 0.00 | 0.00 | 63 | 1017.9 |
| 20260831144544 | 86 | 172 | 1.0 | 2.0 | 0.00 | 0.00 | 0.00 | 64 | 1018.0 |
| 20260831144033 | 86 | 177 | 1.0 | 2.0 | 0.00 | 0.00 | 0.00 | 64 | 1017.9 |
| 20260831143533 | 86 | 173 | 1.0 | 2.0 | 0.00 | 0.00 | 0.00 | 64 | 1018.0 |
| 20260831143035 | 85 | 183 | 1.0 | 2.0 | 0.00 | 0.00 | 0.00 | 65 | 1017.9 |
| 20260831142528 | 85 | 174 | 1.0 | 2.0 | 0.00 | 0.00 | 0.00 | 66 | 1017.9 |
| 20260831142152 | 85 | 206 | 1.0 | 3.0 | 0.00 | 0.00 | 0.00 | 66 | 1017.8 |
| 20260831141553 | 85 | 182 | 1.0 | 2.0 | 0.00 | 0.00 | 0.00 | 66 | 1017.7 |
| 20260831141053 | 84 | 176 | 1.0 | 1.0 | 0.00 | 0.00 | 0.00 | 68 | 1017.7 |
| 20260831140533 | 84 | 173 | 1.0 | 2.0 | 0.00 | 0.00 | 0.00 | 68 | 1017.8 |
| 20260831140034 | 84 | 173 | 1.0 | 3.0 | 0.00 | 0.00 | 0.00 | 68 | 1017.8 |
| 20260831135533 | 84 | 180 | 1.0 | 2.0 | 0.00 | 0.00 | 0.00 | 68 | 1017.7 |
| 20260831135120 | 84 | 174 | 1.0 | 1.0 | 0.00 | 0.00 | 0.00 | 70 | 1017.7 |
| 20260831134600 | 83 | 184 | 1.0 | 2.0 | 0.00 | 0.00 | 0.00 | 70 | 1017.6 |
| 20260831134033 | 83 | 176 | 0.0 | 2.0 | 0.00 | 0.00 | 0.00 | 70 | 1017.5 |
| 20260831133533 | 83 | 173 | 1.0 | 2.0 | 0.00 | 0.00 | 0.00 | 71 | 1017.5 |
| 20260831133034 | 82 | 175 | 1.0 | 1.0 | 0.00 | 0.00 | 0.00 | 71 | 1017.5 |
| 20260831132533 | 81 | 171 | 1.0 | 3.0 | 0.00 | 0.00 | 0.00 | 72 | 1017.3 |
| 20260831132033 | 81 | 183 | 2.0 | 3.0 | 0.00 | 0.00 | 0.00 | 73 | 1017.2 |
| 20260831131534 | 80 | 177 | 1.0 | 1.0 | 0.00 | 0.00 | 0.00 | 75 | 1017.2 |
| 20260831131120 | 79 | 179 | 1.0 | 1.0 | 0.00 | 0.00 | 0.00 | 76 | 1017.1 |
| 20260831130620 | 78 | 178 | 1.0 | 2.0 | 0.00 | 0.00 | 0.00 | 77 | 1017.0 |
| 20260831130041 | 78 | 177 | 1.0 | 1.0 | 0.00 | 0.00 | 0.00 | 77 | 1016.8 |
| 20260831125521 | 78 | 173 | 1.0 | 1.0 | 0.00 | 0.00 | 0.00 | 77 | 1016.8 |
| 20260831125104 | 77 | 176 | 1.0 | 2.0 | 0.00 | 0.00 | 0.00 | 78 | 1016.8 |
| 20260831124545 | 77 | 177 | 1.0 | 1.0 | 0.00 | 0.00 | 0.00 | 78 | 1016.6 |
| 20260831124033 | 77 | 179 | 0.0 | 1.0 | 0.00 | 0.00 | 0.00 | 78 | 1016.6 |
| 20260831123520 | 77 | 179 | 1.0 | 1.0 | 0.00 | 0.00 | 0.00 | 78 | 1016.4 |
| 20260831123104 | 77 | 179 | 1.0 | 1.0 | 0.00 | 0.00 | 0.00 | 78 | 1016.3 |
| 20260831122636 | 77 | 180 | 1.0 | 2.0 | 0.00 | 0.00 | 0.00 | 78 | 1016.4 |
| 20260831122116 | 77 | 170 | 0.0 | 1.0 | 0.00 | 0.00 | 0.00 | 78 | 1016.2 |
| 20260831121535 | 77 | 174 | 0.0 | 1.0 | 0.00 | 0.00 | 0.00 | 77 | 1016.1 |
| 20260831121033 | 77 | 170 | 1.0 | 2.0 | 0.00 | 0.00 | 0.00 | 77 | 1016.1 |
| 20260831120553 | 77 | 169 | 1.0 | 1.0 | 0.00 | 0.00 | 0.00 | 77 | 1016.0 |
| 20260831120034 | 77 | 178 | 1.0 | 2.0 | 0.00 | 0.00 | 0.00 | 77 | 1015.9 |
| 20260831115533 | 77 | 174 | 1.0 | 2.0 | 0.00 | 0.00 | 0.00 | 77 | 1015.9 |
| 20260831115053 | 77 | 173 | 0.0 | 1.0 | 0.00 | 0.00 | 0.00 | 77 | 1015.9 |
| 20260831114534 | 77 | 174 | 1.0 | 1.0 | 0.00 | 0.00 | 0.00 | 77 | 1016.0 |
| 20260831114033 | 77 | 175 | 1.0 | 1.0 | 0.00 | 0.00 | 0.00 | 77 | 1015.9 |
| 20260831113554 | 77 | 174 | 1.0 | 1.0 | 0.00 | 0.00 | 0.00 | 77 | 1015.9 |
| 20260831113034 | 77 | 175 | 0.0 | 1.0 | 0.00 | 0.00 | 0.00 | 76 | 1015.9 |
| 20260831112534 | 77 | 175 | 0.0 | 1.0 | 0.00 | 0.00 | 0.00 | 75 | 1015.8 |
| 20260831112053 | 77 | 175 | 0.0 | 1.0 | 0.00 | 0.00 | 0.00 | 75 | 1015.8 |
| 20260831111534 | 77 | 174 | 0.0 | 1.0 | 0.00 | 0.00 | 0.00 | 75 | 1015.6 |
| 20260831111034 | 78 | 175 | 0.0 | 1.0 | 0.00 | 0.00 | 0.00 | 74 | 1015.6 |
| 20260831110533 | 78 | 175 | 1.0 | 1.0 | 0.00 | 0.00 | 0.00 | 74 | 1015.6 |
| 20260831110054 | 78 | 175 | 1.0 | 1.0 | 0.00 | 0.00 | 0.00 | 74 | 1015.8 |
| 20260831105521 | 78 | 175 | 0.0 | 1.0 | 0.00 | 0.00 | 0.00 | 74 | 1015.8 |
| 20260831105124 | 78 | 177 | 0.0 | 1.0 | 0.00 | 0.00 | 0.00 | 74 | 1015.8 |